Location: Sebastopol
(38.4021°N, 122.8239°W)
Time: 15:42:08
(UTC+00:00)

Cosmos 1300 - Pass Details

Date: 29 October 2020
Orbit: 511 x 513 km, 82.5° (Epoch: 30 November)

Event Time Altitude Azimuth Distance (km) Brightness Sun altitude
Exits shadow 12:45:42 - 356° (N) 1,934 5.6 -22.0°
Reaches altitude 10° 12:46:09 10° 357° (N) 1,743 5.3 -21.9°
Maximum altitude 12:49:58 71° 82° (E) 545 2.8 -21.1°
Drops below altitude 10° 12:53:45 10° 167° (SSE) 1,727 5.5 -20.4°
Sets 12:55:52 0° 169° (S) 2,608 6.4 -20.0°
